#timestamp,LO_Frequency,Hit 
1504458015.5,286047013.7,N
1504458035.3,286047009.4,N
1504458055.1,286047014.0,N
1504458075.9,286047014.7,N
1504458095.7,286047019.7,P
1504458115.6,286047020.4,P
1504458135.4,286047021.4,P
1504458155.2,286047023.4,P
1504458175.1,286047005.5,N
1504458176.0,286047005.5,N
1504458195.8,286047003.8,N
1504458215.6,286047007.3,N
1504458235.5,286047006.8,N
1504458255.3,286047009.0,N
1504458275.1,286047002.9,N
1504458295.9,286047001.6,N
1504458315.7,286047001.5,N
1504458335.5,286047002.5,N
1504458355.3,286046999.7,N
1504458375.2,286047002.0,N
1504458395.0,286046998.2,N
1504458395.9,286046998.2,N
1504458415.7,286047000.1,N
1504458435.6,286047002.5,N
1504458455.4,286046998.8,N
1504458475.2,286047000.5,N
1504458495.1,286047002.8,N
1504458496.0,286047002.8,N
1504458515.8,286047000.4,N
1504458535.6,286047003.9,N
1504458555.5,286047001.8,N
1504458575.3,286047000.9,N
1504458595.1,286047002.8,N
1504458615.9,286046999.7,N
1504458635.7,286047004.0,N
1504458655.5,286047004.5,N
1504458675.4,286047005.0,N
1504458695.2,286047008.5,N
1504458715.0,286047008.6,P
1504458715.9,286047008.6,N
1504458735.8,286047001.7,N
1504458755.6,286047000.0,N
1504458775.4,286047002.0,N
1504458795.3,286047001.7,N
1504458815.1,286047001.4,N
1504458816.0,286047001.4,N
1504458835.8,286046998.2,N
1504458855.7,286047001.0,N
1504458875.5,286047002.3,N
1504458895.4,286047002.5,N
1504458915.2,286047000.4,N
1504458935.1,286047000.7,N
1504458936.0,286047000.7,N
1504458955.8,286047000.3,N
1504458975.6,286046997.9,N
1504458995.5,286046996.1,N
1504459015.3,286046998.8,N
1504459035.1,286047001.2,N
1504459055.9,286046998.3,N
1504459075.7,286046999.2,N
1504459095.5,286047000.6,N
1504459115.4,286046999.8,N
1504459135.2,286047003.7,N
1504459155.0,286047004.3,N
1504459155.9,286047004.3,N
1504459175.8,286046998.0,N
1504459195.6,286046995.3,N
1504459215.4,286046995.0,N
1504459235.2,286046993.7,N
1504459255.1,286046994.8,N
1504459256.0,286046994.8,N
1504459275.8,286046992.7,N
1504459295.7,286046989.1,P
1504459315.5,286046990.8,N
1504459335.3,286046989.3,N
1504459355.1,286046987.5,N
1504459375.9,286046985.6,P
1504459395.7,286046997.5,N
1504459415.6,286046998.1,N
1504459435.4,286046997.4,N
1504459455.2,286046997.2,N
1504459475.1,286046996.6,N
1504459476.0,286046996.6,N
1504459495.8,286046997.1,N
1504459515.6,286046997.0,N
1504459535.4,286047000.7,N
1504459555.3,286047000.9,N
1504459575.1,286047000.1,N
1504459595.8,286046999.9,N
1504459615.7,286046997.6,N
1504459635.5,286046996.0,N
1504459655.3,286046992.0,N
1504459675.2,286046992.9,N
1504459695.9,286046990.4,N
1504459715.7,286046990.8,N
1504459735.6,286046990.3,N
1504459755.4,286046990.7,N
1504459775.2,286046990.4,N
1504459795.1,286046994.4,N
1504459796.0,286046994.4,N
1504459815.8,286046992.7,N
1504459835.6,286046991.7,N
1504459855.5,286046994.8,N
1504459875.3,286046995.7,N
1504459895.1,286046998.1,N
1504459915.9,286046997.3,N
1504459935.7,286046993.5,N
1504459955.5,286046996.4,N
1504459975.4,286046993.6,N
1504459995.2,286046993.6,N
1504460015.0,286046997.8,N
1504460015.9,286046997.8,N
1504460035.8,286047002.2,N
1504460055.6,286047005.1,N
1504460075.4,286047010.4,N
1504460095.2,286047011.5,N
1504460115.1,286047011.6,N
1504460116.0,286047011.6,N
1504460135.8,286047010.1,N
1504460155.6,286047011.9,N
1504460175.5,286047014.4,N
1504460195.3,286047015.1,N
1504460215.1,286047012.7,N
1504460235.9,286047009.9,N
1504460255.7,286047010.1,N
1504460275.5,286047009.6,N
1504460295.4,286047011.7,N
1504460315.2,286047009.6,N
1504460335.0,286047012.4,N
1504460335.9,286047012.4,N
1504460355.8,286047010.4,N
1504460375.6,286047008.5,N
1504460395.4,286047009.1,N
1504460415.3,286047008.8,N
1504460435.1,286047011.9,N
1504460436.0,286047011.9,N
1504460455.8,286047008.1,N
1504460475.7,286047010.6,N
1504460495.2,286047010.2,N
1504460515.0,286047008.4,N
1504460515.9,286047008.4,N
1504460535.8,286047008.6,N
1504460555.6,286047010.2,P
1504460575.4,286046998.6,P
1504460595.3,286047001.8,N
1504460615.1,286047001.7,N
1504460616.0,286047001.7,N
1504460635.8,286047003.1,N
1504460655.7,286047005.8,N
1504460675.5,286047006.1,N
1504460695.3,286047006.6,N
1504460715.2,286047005.2,N
1504460735.9,286047000.1,N
1504460755.7,286047000.6,N
1504460775.6,286047000.4,N
1504460795.4,286047003.9,N
1504460815.2,286047000.4,N
1504460835.0,286047002.1,N
1504460835.9,286047002.1,N
1504460855.8,286047001.7,N
1504460875.6,286047004.1,N
1504460895.4,286047005.8,N
1504460915.3,286047005.0,N
1504460935.1,286047006.9,N
1504460955.8,286047005.5,N
1504460975.7,286047002.4,N
1504460995.5,286047005.2,N
1504461015.3,286047003.4,N
1504461035.2,286047003.3,N
1504461055.9,286047000.6,N
1504461075.7,286046999.8,N
1504461095.6,286047005.1,N
1504461115.4,286047005.2,N
1504461135.2,286047005.2,N
1504461155.0,286047002.0,N
1504461156.0,286047002.0,N
1504461175.8,286047002.1,N
1504461195.6,286047002.2,N
1504461215.4,286047001.0,N
1504461235.3,286046995.8,N
1504461255.1,286046996.4,N
1504461275.8,286046993.8,N
1504461295.7,286046995.9,N
1504461315.5,286046993.7,N
1504461335.3,286046990.8,N
1504461355.2,286046994.2,N
1504461375.9,286046996.2,N
1504461395.7,286046993.5,N
1504461415.6,286046992.9,N
1504461435.4,286046990.1,N
1504461455.2,286046990.2,N
1504461475.1,286046990.1,N
1504461476.0,286046990.1,N
1504461495.8,286046990.4,N
1504461515.6,286046989.5,N
1504461535.5,286046987.3,N
1504461555.3,286046989.9,N
1504461575.1,286046987.4,N
1504461595.9,286046988.2,N
